Time,TemperatureF,DewpointF,PressureIn,WindDirection,WindDirectionDegrees,WindSpeedMPH,WindSpeedGustMPH,Humidity,HourlyPrecipIn,Conditions,Clouds,dailyrainin,SoftwareType,DateUTC
2013-01-28 00:26:00,35.1,34.0,29.85,North,360,0.0,0.0,96,0.00,,,0.00,weatherlink.com 1.10,2013-01-28 06:26:00,
2013-01-28 02:26:00,35.0,34.0,29.89,West,260,5.0,6.0,96,0.00,,,0.00,weatherlink.com 1.10,2013-01-28 08:26:00,
2013-01-28 02:41:00,35.0,34.0,29.90,West,277,2.0,5.0,96,0.00,,,0.00,weatherlink.com 1.10,2013-01-28 08:41:00,
2013-01-28 02:56:00,35.2,34.0,29.90,West,270,4.0,8.0,96,0.00,,,0.00,weatherlink.com 1.10,2013-01-28 08:56:00,
2013-01-28 03:11:00,35.1,34.0,29.90,West,278,3.0,8.0,96,0.00,,,0.00,weatherlink.com 1.10,2013-01-28 09:11:00,
2013-01-28 03:26:00,35.0,34.0,29.91,WNW,294,4.0,8.0,96,0.00,,,0.00,weatherlink.com 1.10,2013-01-28 09:26:00,
2013-01-28 03:41:00,34.7,34.0,29.91,West,281,3.0,6.0,96,0.00,,,0.00,weatherlink.com 1.10,2013-01-28 09:41:00,
2013-01-28 03:56:00,34.8,34.0,29.91,West,277,2.0,6.0,96,0.00,,,0.00,weatherlink.com 1.10,2013-01-28 09:56:00,
2013-01-28 04:11:00,34.8,34.0,29.92,WNW,300,6.0,6.0,96,0.00,,,0.00,weatherlink.com 1.10,2013-01-28 10:11:00,
2013-01-28 04:27:00,35.0,34.0,29.92,NW,323,6.0,9.0,96,0.00,,,0.00,weatherlink.com 1.10,2013-01-28 10:27:00,
2013-01-28 04:41:00,34.7,34.0,29.92,NNW,339,3.0,8.0,96,0.00,,,0.00,weatherlink.com 1.10,2013-01-28 10:41:00,
2013-01-28 04:56:00,34.7,34.0,29.93,NW,315,3.0,5.0,96,0.00,,,0.00,weatherlink.com 1.10,2013-01-28 10:56:00,
2013-01-28 05:11:00,34.7,34.0,29.93,NW,323,2.0,3.0,96,0.00,,,0.00,weatherlink.com 1.10,2013-01-28 11:11:00,
2013-01-28 05:27:00,34.8,34.0,29.93,NW,310,4.0,5.0,96,0.00,,,0.00,weatherlink.com 1.10,2013-01-28 11:27:00,
2013-01-28 05:42:00,34.8,34.0,29.94,NW,323,3.0,4.0,96,0.00,,,0.00,weatherlink.com 1.10,2013-01-28 11:42:00,
2013-01-28 05:57:00,34.7,34.0,29.93,NNW,340,3.0,6.0,96,0.00,,,0.00,weatherlink.com 1.10,2013-01-28 11:57:00,
2013-01-28 06:12:00,34.5,34.0,29.94,NNW,338,2.0,4.0,96,0.00,,,0.00,weatherlink.com 1.10,2013-01-28 12:12:00,
2013-01-28 06:27:00,34.3,33.0,29.95,NNW,346,1.0,3.0,96,0.00,,,0.00,weatherlink.com 1.10,2013-01-28 12:27:00,
2013-01-28 06:42:00,34.1,33.0,29.95,NNW,346,0.0,0.0,96,0.00,,,0.00,weatherlink.com 1.10,2013-01-28 12:42:00,
2013-01-28 06:57:00,34.1,33.0,29.95,East,83,1.0,2.0,96,0.00,,,0.00,weatherlink.com 1.10,2013-01-28 12:57:00,
2013-01-28 07:12:00,34.1,33.0,29.95,East,83,0.0,1.0,96,0.00,,,0.00,weatherlink.com 1.10,2013-01-28 13:12:00,
2013-01-28 07:27:00,34.1,33.0,29.96,SE,125,0.0,2.0,96,0.00,,,0.00,weatherlink.com 1.10,2013-01-28 13:27:00,
2013-01-28 07:42:00,34.2,33.0,29.96,SSE,166,0.0,2.0,96,0.00,,,0.00,weatherlink.com 1.10,2013-01-28 13:42:00,
2013-01-28 07:57:00,34.3,33.0,29.96,SSE,166,0.0,0.0,96,0.00,,,0.00,weatherlink.com 1.10,2013-01-28 13:57:00,
2013-01-28 08:12:00,34.3,33.0,29.97,SSE,166,0.0,1.0,96,0.00,,,0.00,weatherlink.com 1.10,2013-01-28 14:12:00,
2013-01-28 08:27:00,34.5,34.0,29.98,SSE,157,0.0,1.0,96,0.00,,,0.00,weatherlink.com 1.10,2013-01-28 14:27:00,
2013-01-28 08:42:00,34.8,34.0,29.98,SE,138,0.0,3.0,97,0.00,,,0.00,weatherlink.com 1.10,2013-01-28 14:42:00,
2013-01-28 08:57:00,35.0,34.0,29.97,SE,137,2.0,2.0,96,0.00,,,0.00,weatherlink.com 1.10,2013-01-28 14:57:00,
2013-01-28 09:12:00,35.1,34.0,29.97,ESE,123,0.0,3.0,96,0.00,,,0.00,weatherlink.com 1.10,2013-01-28 15:12:00,
2013-01-28 09:27:00,35.0,34.0,29.98,SSE,152,2.0,5.0,96,0.00,,,0.00,weatherlink.com 1.10,2013-01-28 15:27:00,
2013-01-28 09:42:00,35.2,34.0,29.98,ESE,122,1.0,3.0,96,0.00,,,0.00,weatherlink.com 1.10,2013-01-28 15:42:00,
2013-01-28 09:57:00,35.2,34.0,29.97,ESE,117,0.0,2.0,96,0.00,,,0.00,weatherlink.com 1.10,2013-01-28 15:57:00,
2013-01-28 10:12:00,35.5,35.0,29.97,ENE,70,0.0,3.0,97,0.00,,,0.00,weatherlink.com 1.10,2013-01-28 16:12:00,
2013-01-28 10:27:00,35.5,35.0,29.96,ENE,78,1.0,2.0,97,0.00,,,0.00,weatherlink.com 1.10,2013-01-28 16:27:00,
2013-01-28 10:42:00,35.7,35.0,29.95,ENE,57,4.0,4.0,96,0.00,,,0.00,weatherlink.com 1.10,2013-01-28 16:42:00,
2013-01-28 10:57:00,35.9,35.0,29.95,East,86,5.0,7.0,97,0.00,,,0.00,weatherlink.com 1.10,2013-01-28 16:57:00,
2013-01-28 11:12:00,35.7,35.0,29.95,ESE,111,4.0,7.0,96,0.00,,,0.00,weatherlink.com 1.10,2013-01-28 17:12:00,
2013-01-28 11:27:00,35.9,35.0,29.95,ESE,114,3.0,7.0,97,0.00,,,0.00,weatherlink.com 1.10,2013-01-28 17:27:00,
2013-01-28 11:42:00,36.1,35.0,29.95,East,98,2.0,7.0,97,0.00,,,0.00,weatherlink.com 1.10,2013-01-28 17:42:00,
2013-01-28 11:57:00,36.0,35.0,29.94,East,101,1.0,6.0,97,0.00,,,0.00,weatherlink.com 1.10,2013-01-28 17:57:00,
2013-01-28 12:12:00,36.1,35.0,29.93,ESE,109,2.0,7.0,97,0.00,,,0.00,weatherlink.com 1.10,2013-01-28 18:12:00,
2013-01-28 12:27:00,36.1,35.0,29.93,ESE,116,4.0,7.0,97,0.00,,,0.00,weatherlink.com 1.10,2013-01-28 18:27:00,
2013-01-28 12:42:00,36.5,36.0,29.92,East,88,5.0,9.0,97,0.00,,,0.00,weatherlink.com 1.10,2013-01-28 18:42:00,
2013-01-28 12:57:00,36.8,36.0,29.91,East,101,5.0,9.0,97,0.00,,,0.00,weatherlink.com 1.10,2013-01-28 18:57:00,
2013-01-28 13:12:00,36.6,36.0,29.89,ESE,102,4.0,9.0,97,0.00,,,0.00,weatherlink.com 1.10,2013-01-28 19:12:00,
2013-01-28 13:27:00,37.2,37.0,29.89,SE,132,6.0,9.0,97,0.00,,,0.00,weatherlink.com 1.10,2013-01-28 19:27:00,
2013-01-28 13:42:00,37.1,36.0,29.89,ESE,115,8.0,9.0,97,0.00,,,0.00,weatherlink.com 1.10,2013-01-28 19:42:00,
2013-01-28 13:57:00,37.3,37.0,29.88,East,82,6.0,10.0,97,0.00,,,0.00,weatherlink.com 1.10,2013-01-28 19:57:00,
2013-01-28 14:12:00,37.5,37.0,29.87,ESE,111,7.0,11.0,97,0.00,,,0.00,weatherlink.com 1.10,2013-01-28 20:12:00,
2013-01-28 14:27:00,37.5,37.0,29.86,East,100,9.0,11.0,97,0.00,,,0.00,weatherlink.com 1.10,2013-01-28 20:27:00,
2013-01-28 14:42:00,38.0,37.0,29.85,ESE,109,7.0,9.0,97,0.00,,,0.00,weatherlink.com 1.10,2013-01-28 20:42:00,
2013-01-28 14:57:00,38.0,37.0,29.85,ESE,102,5.0,11.0,97,0.00,,,0.00,weatherlink.com 1.10,2013-01-28 20:57:00,
2013-01-28 15:12:00,38.2,38.0,29.84,East,85,5.0,8.0,97,0.00,,,0.00,weatherlink.com 1.10,2013-01-28 21:12:00,
2013-01-28 15:27:00,38.2,38.0,29.84,East,82,8.0,9.0,97,0.00,,,0.00,weatherlink.com 1.10,2013-01-28 21:27:00,
2013-01-28 15:42:00,38.1,37.0,29.84,East,96,6.0,10.0,97,0.00,,,0.00,weatherlink.com 1.10,2013-01-28 21:42:00,
2013-01-28 15:57:00,38.2,38.0,29.83,ESE,113,4.0,10.0,97,0.00,,,0.00,weatherlink.com 1.10,2013-01-28 21:57:00,
2013-01-28 16:12:00,38.2,38.0,29.83,ESE,106,7.0,10.0,97,0.00,,,0.00,weatherlink.com 1.10,2013-01-28 22:12:00,
2013-01-28 16:27:00,38.4,38.0,29.82,East,94,6.0,11.0,97,0.00,,,0.00,weatherlink.com 1.10,2013-01-28 22:27:00,
2013-01-28 16:42:00,38.5,38.0,29.82,East,98,7.0,11.0,97,0.00,,,0.00,weatherlink.com 1.10,2013-01-28 22:42:00,
2013-01-28 16:57:00,38.4,38.0,29.81,East,96,6.0,11.0,97,0.00,,,0.00,weatherlink.com 1.10,2013-01-28 22:57:00,
2013-01-28 17:12:00,38.4,38.0,29.80,ESE,104,3.0,8.0,97,0.00,,,0.00,weatherlink.com 1.10,2013-01-28 23:12:00,
2013-01-28 17:27:00,38.4,38.0,29.79,East,90,8.0,9.0,97,0.00,,,0.00,weatherlink.com 1.10,2013-01-28 23:27:00,
2013-01-28 17:42:00,38.4,38.0,29.78,SE,129,8.0,10.0,97,0.00,,,0.00,weatherlink.com 1.10,2013-01-28 23:42:00,
2013-01-28 17:57:00,38.6,38.0,29.78,East,96,8.0,11.0,97,0.00,,,0.00,weatherlink.com 1.10,2013-01-28 23:57:00,
2013-01-28 18:13:00,38.7,38.0,29.77,East,94,7.0,10.0,97,0.00,,,0.00,weatherlink.com 1.10,2013-01-29 00:13:00,
2013-01-28 18:28:00,38.8,38.0,29.77,ESE,121,5.0,10.0,97,0.00,,,0.00,weatherlink.com 1.10,2013-01-29 00:28:00,
2013-01-28 18:43:00,39.0,38.0,29.77,ESE,109,4.0,9.0,97,0.00,,,0.00,weatherlink.com 1.10,2013-01-29 00:43:00,
2013-01-28 18:58:00,39.4,39.0,29.77,ESE,119,8.0,9.0,97,0.00,,,0.00,weatherlink.com 1.10,2013-01-29 00:58:00,
2013-01-28 19:13:00,39.6,39.0,29.76,ESE,104,4.0,9.0,97,0.00,,,0.00,weatherlink.com 1.10,2013-01-29 01:13:00,
2013-01-28 19:28:00,39.9,39.0,29.75,ESE,103,4.0,10.0,97,0.00,,,0.00,weatherlink.com 1.10,2013-01-29 01:28:00,
2013-01-28 19:43:00,40.1,39.0,29.74,ESE,117,8.0,10.0,97,0.00,,,0.00,weatherlink.com 1.10,2013-01-29 01:43:00,
2013-01-28 19:58:00,40.5,40.0,29.73,ESE,102,4.0,12.0,97,0.00,,,0.00,weatherlink.com 1.10,2013-01-29 01:58:00,
2013-01-28 20:13:00,40.6,40.0,29.73,ESE,102,7.0,10.0,97,0.00,,,0.00,weatherlink.com 1.10,2013-01-29 02:13:00,
2013-01-28 20:28:00,40.8,40.0,29.72,ESE,111,5.0,10.0,97,0.00,,,0.00,weatherlink.com 1.10,2013-01-29 02:28:00,
2013-01-28 20:43:00,41.1,40.0,29.70,East,98,7.0,9.0,97,0.00,,,0.00,weatherlink.com 1.10,2013-01-29 02:43:00,
2013-01-28 20:58:00,41.1,40.0,29.70,ESE,102,5.0,8.0,97,0.00,,,0.00,weatherlink.com 1.10,2013-01-29 02:58:00,
2013-01-28 21:13:00,40.6,40.0,29.70,NNW,348,5.0,13.0,97,0.00,,,0.00,weatherlink.com 1.10,2013-01-29 03:13:00,
2013-01-28 21:28:00,41.4,41.0,29.67,ESE,119,4.0,12.0,97,0.01,,,0.01,weatherlink.com 1.10,2013-01-29 03:28:00,
2013-01-28 21:43:00,41.7,41.0,29.67,ESE,103,5.0,6.0,97,0.01,,,0.01,weatherlink.com 1.10,2013-01-29 03:43:00,
2013-01-28 21:58:00,42.0,41.0,29.66,ESE,115,8.0,10.0,97,0.01,,,0.01,weatherlink.com 1.10,2013-01-29 03:58:00,
2013-01-28 22:13:00,42.8,42.0,29.64,SE,125,5.0,11.0,97,0.00,,,0.01,weatherlink.com 1.10,2013-01-29 04:13:00,
2013-01-28 22:28:00,43.6,43.0,29.64,SE,141,6.0,8.0,97,0.00,,,0.01,weatherlink.com 1.10,2013-01-29 04:28:00,
2013-01-28 22:43:00,44.1,43.0,29.63,ESE,118,4.0,9.0,97,0.00,,,0.01,weatherlink.com 1.10,2013-01-29 04:43:00,
2013-01-28 22:58:00,44.7,44.0,29.63,SSE,157,6.0,6.0,97,0.00,,,0.01,weatherlink.com 1.10,2013-01-29 04:58:00,
2013-01-28 23:13:00,45.9,45.0,29.63,SE,132,3.0,7.0,97,0.00,,,0.01,weatherlink.com 1.10,2013-01-29 05:13:00,
2013-01-28 23:28:00,45.6,45.0,29.62,SE,128,3.0,4.0,97,0.00,,,0.01,weatherlink.com 1.10,2013-01-29 05:28:00,
2013-01-28 23:43:00,46.0,45.0,29.61,SE,125,4.0,5.0,97,0.00,,,0.01,weatherlink.com 1.10,2013-01-29 05:43:00,
2013-01-28 23:58:00,46.5,46.0,29.61,SE,125,4.0,5.0,97,0.00,,,0.01,weatherlink.com 1.10,2013-01-29 05:58:00,